| time (UTC) | temp F | wind direction | speed knots | gust knots | rain 1hr in | rain 24hr in | rain mn in | humidity % | barometer mb |
| 20260507224553 | 63 | 222 | 2.6 | 6.1 | 0.00 | 0.05 | 0.01 | 74 | 1009.0 |
| 20260507223051 | 62 | 195 | 1.7 | 6.1 | 0.00 | 0.05 | 0.01 | 75 | 1008.8 |
| 20260507221550 | 63 | 211 | 2.6 | 6.1 | 0.00 | 0.05 | 0.01 | 74 | 1008.6 |
| 20260507220054 | 64 | 238 | 1.7 | 6.1 | 0.00 | 0.05 | 0.01 | 72 | 1008.4 |
| 20260507214548 | 64 | 257 | 2.6 | 6.1 | 0.00 | 0.05 | 0.01 | 73 | 1008.2 |
| 20260507213048 | 64 | 260 | 5.2 | 9.6 | 0.00 | 0.05 | 0.01 | 73 | 1008.2 |
| 20260507211546 | 62 | 188 | 1.7 | 7.0 | 0.00 | 0.05 | 0.01 | 76 | 1008.2 |
| 20260507210056 | 62 | 242 | 5.2 | 7.8 | 0.00 | 0.05 | 0.01 | 74 | 1008.2 |
| 20260507204643 | 62 | 205 | 3.5 | 7.8 | 0.00 | 0.05 | 0.01 | 77 | 1008.2 |
| 20260507203107 | 60 | 224 | 4.3 | 11.3 | 0.00 | 0.05 | 0.01 | 79 | 1008.5 |
| 20260507201539 | 59 | 174 | 2.6 | 6.1 | 0.00 | 0.05 | 0.01 | 80 | 1008.4 |
| 20260507200041 | 58 | 167 | 0.9 | 6.1 | 0.00 | 0.05 | 0.01 | 81 | 1008.7 |
| 20260507194538 | 59 | 239 | 3.5 | 7.0 | 0.00 | 0.05 | 0.01 | 79 | 1009.0 |
| 20260507193039 | 59 | 213 | 4.3 | 8.7 | 0.00 | 0.05 | 0.01 | 79 | 1009.1 |
| 20260507191539 | 58 | 254 | 3.5 | 10.4 | 0.00 | 0.05 | 0.01 | 80 | 1009.4 |
| 20260507190034 | 58 | 210 | 1.7 | 6.1 | 0.00 | 0.05 | 0.01 | 81 | 1009.6 |
| 20260507184532 | 56 | 244 | 3.5 | 6.1 | 0.00 | 0.05 | 0.01 | 82 | 1009.7 |
| 20260507183030 | 56 | 229 | 1.7 | 6.1 | 0.00 | 0.05 | 0.01 | 81 | 1009.8 |
| 20260507181528 | 57 | 206 | 3.5 | 7.0 | 0.00 | 0.05 | 0.01 | 79 | 1009.9 |
| 20260507180034 | 57 | 172 | 0.9 | 4.3 | 0.00 | 0.05 | 0.01 | 83 | 1010.0 |
| 20260507174536 | 56 | 188 | 3.5 | 5.2 | 0.00 | 0.05 | 0.01 | 82 | 1010.1 |
| 20260507173048 | 56 | 207 | 1.7 | 7.0 | 0.00 | 0.05 | 0.01 | 84 | 1010.3 |
| 20260507171526 | 54 | 181 | 0.9 | 4.3 | 0.01 | 0.05 | 0.01 | 87 | 1010.4 |
| 20260507170024 | 54 | 228 | 2.6 | 6.1 | 0.01 | 0.05 | 0.01 | 85 | 1010.9 |
| 20260507164522 | 54 | 230 | 2.6 | 6.1 | 0.01 | 0.05 | 0.01 | 86 | 1010.8 |
| 20260507163025 | 53 | 163 | 0.9 | 2.6 | 0.01 | 0.05 | 0.01 | 83 | 1011.1 |
| 20260507161521 | 54 | 212 | 0.0 | 3.5 | 0.00 | 0.04 | 0.00 | 83 | 1011.4 |
| 20260507160019 | 53 | 127 | 0.0 | 0.9 | 0.00 | 0.04 | 0.00 | 86 | 1011.4 |
| 20260507154518 | 52 | 94 | 0.0 | 3.5 | 0.00 | 0.04 | 0.00 | 87 | 1011.7 |
| 20260507153017 | 51 | 73 | 0.9 | 2.6 | 0.00 | 0.04 | 0.00 | 85 | 1011.9 |
| 20260507151516 | 52 | 124 | 0.0 | 2.6 | 0.00 | 0.04 | 0.00 | 86 | 1012.1 |
| 20260507150023 | 51 | 22 | 0.0 | 0.9 | 0.00 | 0.04 | 0.00 | 86 | 1011.9 |
| 20260507144516 | 51 | 45 | 0.0 | 2.6 | 0.00 | 0.04 | 0.00 | 86 | 1011.9 |
| 20260507143015 | 51 | 63 | 0.9 | 3.5 | 0.00 | 0.04 | 0.00 | 84 | 1011.8 |
| 20260507141515 | 51 | 79 | 0.0 | 1.7 | 0.00 | 0.04 | 0.00 | 85 | 1012.2 |
| 20260507140014 | 51 | 82 | 0.9 | 3.5 | 0.00 | 0.04 | 0.00 | 84 | 1012.4 |
| 20260507134514 | 51 | 67 | 0.9 | 3.5 | 0.00 | 0.05 | 0.00 | 85 | 1012.4 |
| 20260507133018 | 51 | 82 | 0.0 | 2.6 | 0.00 | 0.05 | 0.00 | 85 | 1012.4 |
| 20260507131515 | 51 | 68 | 0.9 | 2.6 | 0.00 | 0.05 | 0.00 | 86 | 1012.4 |
| 20260507130012 | 51 | 89 | 0.9 | 1.7 | 0.00 | 0.05 | 0.00 | 86 | 1012.2 |
| 20260507124511 | 51 | 328 | 0.0 | 1.7 | 0.00 | 0.06 | 0.00 | 86 | 1012.5 |
| 20260507123013 | 51 | 70 | 1.7 | 3.5 | 0.00 | 0.06 | 0.00 | 85 | 1012.3 |
| 20260507121508 | 51 | 65 | 0.0 | 2.6 | 0.00 | 0.06 | 0.00 | 86 | 1012.2 |
| 20260507120006 | 51 | 67 | 0.0 | 1.7 | 0.00 | 0.06 | 0.00 | 86 | 1012.1 |
| 20260507114506 | 51 | 106 | 0.0 | 3.5 | 0.00 | 0.07 | 0.00 | 86 | 1011.9 |
| 20260507113010 | 51 | 77 | 0.0 | 1.7 | 0.00 | 0.07 | 0.00 | 88 | 1011.9 |
| 20260507111504 | 51 | 38 | 0.9 | 2.6 | 0.00 | 0.07 | 0.00 | 88 | 1011.7 |
| 20260507110002 | 51 | 2 | 0.0 | 2.6 | 0.00 | 0.07 | 0.00 | 89 | 1011.5 |
| 20260507104605 | 51 | 73 | 0.9 | 2.6 | 0.00 | 0.07 | 0.00 | 89 | 1011.4 |
| 20260507103100 | 51 | 51 | 0.9 | 3.5 | 0.00 | 0.07 | 0.00 | 89 | 1011.1 |
| 20260507101601 | 51 | 66 | 0.9 | 4.3 | 0.00 | 0.07 | 0.00 | 89 | 1011.1 |
| 20260507100057 | 52 | 86 | 0.9 | 3.5 | 0.00 | 0.07 | 0.00 | 90 | 1011.1 |
| 20260507094601 | 52 | 75 | 0.0 | 2.6 | 0.00 | 0.07 | 0.00 | 90 | 1011.0 |
| 20260507093055 | 52 | 66 | 0.9 | 4.3 | 0.00 | 0.07 | 0.00 | 90 | 1011.0 |
| 20260507091553 | 53 | 57 | 0.9 | 6.1 | 0.00 | 0.07 | 0.00 | 91 | 1010.7 |
| 20260507090050 | 53 | 230 | 0.9 | 4.3 | 0.00 | 0.07 | 0.00 | 92 | 1010.9 |
| 20260507084549 | 53 | 84 | 0.0 | 6.1 | 0.00 | 0.07 | 0.00 | 92 | 1010.8 |
| 20260507083047 | 53 | 92 | 0.0 | 2.6 | 0.00 | 0.07 | 0.00 | 92 | 1010.6 |
| 20260507081545 | 54 | 130 | 1.7 | 5.2 | 0.00 | 0.07 | 0.00 | 92 | 1010.3 |
| 20260507080044 | 55 | 78 | 0.9 | 4.3 | 0.00 | 0.07 | 0.00 | 92 | 1010.5 |
| 20260507074546 | 55 | 51 | 1.7 | 5.2 | 0.00 | 0.07 | 0.00 | 92 | 1010.3 |
| 20260507073043 | 56 | 53 | 0.9 | 4.3 | 0.00 | 0.07 | 0.00 | 92 | 1010.6 |
| 20260507071536 | 58 | 83 | 1.7 | 4.3 | 0.00 | 0.07 | 0.00 | 92 | 1010.3 |
| 20260507070042 | 59 | 213 | 0.0 | 0.9 | 0.00 | 0.07 | 0.00 | 91 | 1009.6 |
| 20260507064530 | 59 | 212 | 0.9 | 1.7 | 0.00 | 0.07 | 0.00 | 92 | 1009.8 |
| 20260507063028 | 59 | 221 | 0.0 | 0.9 | 0.00 | 0.07 | 0.00 | 91 | 1009.6 |
| 20260507061526 | 60 | 221 | 0.9 | 3.5 | 0.00 | 0.07 | 0.00 | 90 | 1009.9 |
| 20260507060026 | 60 | 179 | 1.7 | 3.5 | 0.00 | 0.07 | 0.00 | 88 | 1009.8 |
| 20260507054525 | 60 | 212 | 0.0 | 2.6 | 0.00 | 0.07 | 0.00 | 88 | 1010.2 |
| 20260507053024 | 61 | 229 | 1.7 | 9.6 | 0.00 | 0.07 | 0.00 | 87 | 1010.2 |
| 20260507051521 | 60 | 278 | 0.0 | 0.9 | 0.00 | 0.07 | 0.00 | 91 | 1010.3 |
| 20260507050027 | 60 | 108 | 0.0 | 2.6 | 0.00 | 0.07 | 0.00 | 92 | 1010.0 |
| 20260507044518 | 59 | 247 | 0.9 | 2.6 | 0.00 | 0.07 | 0.00 | 92 | 1009.4 |
| 20260507043017 | 60 | 253 | 0.9 | 7.8 | 0.04 | 0.07 | 0.00 | 91 | 1008.7 |
| 20260507041513 | 61 | 167 | 0.9 | 2.6 | 0.04 | 0.07 | 0.00 | 91 | 1009.3 |
| 20260507040009 | 61 | 277 | 1.7 | 4.3 | 0.04 | 0.07 | 0.00 | 91 | 1009.9 |
| 20260507034509 | 62 | 234 | 3.5 | 7.8 | 0.03 | 0.06 | 0.06 | 88 | 1009.5 |
| 20260507033010 | 63 | 262 | 3.5 | 7.8 | 0.00 | 0.03 | 0.03 | 87 | 1010.5 |
| 20260507031507 | 63 | 274 | 5.2 | 8.7 | 0.00 | 0.03 | 0.03 | 86 | 1010.2 |
| 20260507030007 | 63 | 293 | 3.5 | 7.0 | 0.00 | 0.03 | 0.03 | 87 | 1010.2 |
| 20260507024509 | 64 | 212 | 0.0 | 2.6 | 0.00 | 0.03 | 0.03 | 86 | 1009.5 |
| 20260507023006 | 64 | 243 | 1.7 | 6.1 | 0.00 | 0.03 | 0.03 | 85 | 1009.4 |
| 20260507021505 | 65 | 241 | 4.3 | 9.6 | 0.00 | 0.03 | 0.03 | 84 | 1009.1 |
| 20260507020008 | 66 | 1 | 0.9 | 4.3 | 0.00 | 0.03 | 0.03 | 84 | 1009.6 |
| 20260507014508 | 66 | 287 | 0.9 | 2.6 | 0.00 | 0.03 | 0.03 | 84 | 1009.0 |
| 20260507013004 | 65 | 245 | 3.5 | 7.8 | 0.00 | 0.03 | 0.03 | 84 | 1008.9 |
| 20260507011509 | 66 | 256 | 3.5 | 9.6 | 0.00 | 0.03 | 0.03 | 82 | 1008.8 |
| 20260507010004 | 67 | 228 | 6.1 | 10.4 | 0.00 | 0.03 | 0.03 | 80 | 1008.8 |
| 20260507004501 | 67 | 264 | 2.6 | 5.2 | 0.00 | 0.03 | 0.03 | 80 | 1009.1 |
| 20260507003001 | 67 | 274 | 2.6 | 6.1 | 0.00 | 0.03 | 0.03 | 80 | 1009.0 |
| 20260507001608 | 68 | 266 | 2.6 | 6.1 | 0.00 | 0.03 | 0.03 | 79 | 1008.9 |
| 20260507000100 | 68 | 236 | 4.3 | 8.7 | 0.00 | 0.03 | 0.03 | 79 | 1008.7 |
| 20260506234607 | 68 | 263 | 3.5 | 7.8 | 0.00 | 0.03 | 0.03 | 79 | 1008.5 |
| 20260506233100 | 69 | 271 | 5.2 | 11.3 | 0.00 | 0.03 | 0.03 | 77 | 1008.4 |
| 20260506231557 | 69 | 267 | 7.0 | 13.0 | 0.00 | 0.03 | 0.03 | 76 | 1008.3 |